Home > Weather > Ipswich > Past weeks

Flag for United Kingdom Past Weather in Ipswich, England, United Kingdom — Yesterday and Last 2 Weeks

Now
48 °F

Low clouds.


Feels Like: 45 °F
Forecast: 49 / 63 °F
Wind: 8 mph from Northeast

Location: Wattisham

Current Time: May 28, 2016 at 5:09:09 AM

Latest Report: May 28, 2016 at 3:50 AM


Visibility: 1 mi

Pressure: 30.04 "Hg

Humidity: 94%

Dew Point: 46 °F

Location of IpswichLocation

Past Weather in Ipswich — Graph

°F

Ipswich Temperature Yesterday

Maximum temperature yesterday: 63 °F (at 1:50 PM)
Minimum temperature yesterday: 45 °F (at 5:50 AM)
Average temperature yesterday: 54 °F

High & Low Weather Summary for the Past Weeks

 TemperatureHumidityPressure
High66 °F (May 20, 2:50 PM)100% (May 13, 3:50 AM)30.18 "Hg (May 13, 3:50 AM)
Low34 °F (May 15, 2:50 AM)47% (May 14, 2:50 PM)29.59 "Hg (May 18, 3:50 PM)
Average53 °F77%29.96 "Hg
* Reported May 13 2:50 AM — May 28 2:50 AM, Ipswich, Weather by CustomWeather, © 2016

Note: Actual official high and low records may vary slightly from our data, if they occured in-between our weather recording intervals... More about our weather records

Advertising

Ipswich Weather History for the Previous 24 Hours

Scroll right to see more
 ConditionsComfort  
Time TempWeatherWind HumidityBarometerVisibility
2:50 AM
Sat, May 28
48 °FFog.10 mph94%30.04 "Hg1 mi
1:50 AM48 °FFog.8 mph94%30.04 "Hg4 mi
12:50 AM48 °FHaze.9 mph94%30.04 "Hg6 mi
11:50 PM
Fri, May 27
48 °FPassing clouds.9 mph87%30.04 "HgN/A
10:50 PM50 °FCool.10 mph88%30.07 "HgN/A
9:50 PM52 °FCool.8 mph88%30.07 "HgN/A
8:50 PM54 °FCool.9 mph88%30.04 "HgN/A
7:50 PM55 °FCool.12 mph82%30.04 "HgN/A
6:50 PM57 °FPassing clouds.13 mph77%30.04 "HgN/A
5:50 PM61 °FPassing clouds.13 mph68%30.04 "HgN/A
4:50 PM61 °FPartly sunny.12 mph72%30.04 "HgN/A
3:50 PM63 °FScattered clouds.10 mph64%30.04 "HgN/A
2:50 PM63 °FPassing clouds.10 mph64%30.04 "HgN/A
1:50 PM63 °FPassing clouds.9 mph59%30.04 "HgN/A
12:50 PM61 °FPassing clouds.9 mph63%30.04 "HgN/A
11:50 AM61 °FPassing clouds.8 mph68%30.04 "HgN/A
10:50 AM59 °FPassing clouds.10 mph68%30.04 "HgN/A
9:50 AM57 °FScattered clouds.12 mph72%30.04 "HgN/A
8:50 AM54 °FPartly sunny.12 mph77%30.04 "HgN/A
7:50 AM52 °FPartly sunny.13 mph82%30.04 "HgN/A
6:50 AM48 °FSunny.7 mph94%30.04 "Hg10 mi
5:50 AM45 °FFog.7 mph100%30.04 "Hg1 mi
Weather by CustomWeather, © 2016

See weather overviewHow to use our weather pages